Time,TemperatureF,DewpointF,PressureIn,WindDirection,WindDirectionDegrees,WindSpeedMPH,WindSpeedGustMPH,Humidity,HourlyPrecipIn,Conditions,Clouds,dailyrainin,SoftwareType,DateUTC
2013-01-05 00:00:00,27.5,17.6,29.90,NW,315,1.0,5.0,66,0.00,,,-99.99,WeatherLink 5.7,2013-01-05 05:00:00,
2013-01-05 00:01:00,27.5,17.3,29.90,WNW,292,0.0,2.0,65,0.00,,,-99.99,WeatherLink 5.7,2013-01-05 05:01:00,
2013-01-05 00:05:00,27.8,17.6,29.90,WSW,247,0.0,5.0,65,0.00,,,-99.99,WeatherLink 5.7,2013-01-05 05:05:00,
2013-01-05 00:10:00,27.8,17.6,29.90,West,270,1.0,6.0,65,0.00,,,-99.99,WeatherLink 5.7,2013-01-05 05:10:00,
2013-01-05 00:15:00,27.6,17.4,29.90,WNW,292,1.0,6.0,65,0.00,,,-99.99,WeatherLink 5.7,2013-01-05 05:15:00,
2013-01-05 00:20:00,27.6,17.4,29.90,WSW,247,0.0,3.0,65,0.00,,,-99.99,WeatherLink 5.7,2013-01-05 05:20:00,
2013-01-05 00:25:00,27.6,17.4,29.90,WNW,292,1.0,6.0,65,0.00,,,-99.99,WeatherLink 5.7,2013-01-05 05:25:00,
2013-01-05 00:30:00,27.6,17.4,29.90,WSW,247,0.0,3.0,65,0.00,,,-99.99,WeatherLink 5.7,2013-01-05 05:30:00,
2013-01-05 00:35:00,27.6,17.4,29.90,West,270,2.0,6.0,65,0.00,,,-99.99,WeatherLink 5.7,2013-01-05 05:35:00,
2013-01-05 00:40:00,27.8,17.2,29.90,West,270,2.0,7.0,64,0.00,,,-99.99,WeatherLink 5.7,2013-01-05 05:40:00,
2013-01-05 00:45:00,27.9,17.3,29.90,NW,315,2.0,7.0,64,0.00,,,-99.99,WeatherLink 5.7,2013-01-05 05:45:00,
2013-01-05 00:50:00,27.8,17.2,29.90,WNW,292,1.0,8.0,64,0.00,,,-99.99,WeatherLink 5.7,2013-01-05 05:50:00,
2013-01-05 00:55:00,27.9,17.3,29.90,NNW,337,2.0,11.0,64,0.00,,,-99.99,WeatherLink 5.7,2013-01-05 05:55:00,
2013-01-05 01:00:00,27.9,17.3,29.91,NW,315,3.0,11.0,64,0.00,,,-99.99,WeatherLink 5.7,2013-01-05 06:00:00,
2013-01-05 01:05:00,28.1,17.1,29.91,WNW,292,2.0,7.0,63,0.00,,,-99.99,WeatherLink 5.7,2013-01-05 06:05:00,
2013-01-05 01:10:00,28.2,17.2,29.91,WSW,247,1.0,6.0,63,0.00,,,-99.99,WeatherLink 5.7,2013-01-05 06:10:00,
2013-01-05 01:15:00,28.2,17.2,29.91,WNW,292,2.0,7.0,63,0.00,,,-99.99,WeatherLink 5.7,2013-01-05 06:15:00,
2013-01-05 01:20:00,28.1,17.5,29.91,West,270,1.0,7.0,64,0.00,,,-99.99,WeatherLink 5.7,2013-01-05 06:20:00,
2013-01-05 01:30:00,28.1,17.1,29.92,WNW,292,0.0,5.0,63,0.00,,,-99.99,WeatherLink 5.7,2013-01-05 06:30:00,
2013-01-05 01:31:00,28.1,17.1,29.91,WNW,292,2.0,7.0,63,0.00,,,-99.99,WeatherLink 5.7,2013-01-05 06:31:00,
2013-01-05 01:35:00,28.2,17.2,29.92,West,270,3.0,13.0,63,0.00,,,-99.99,WeatherLink 5.7,2013-01-05 06:35:00,
2013-01-05 01:45:00,28.1,17.5,29.93,WNW,292,1.0,6.0,64,0.00,,,-99.99,WeatherLink 5.7,2013-01-05 06:45:00,
2013-01-05 01:46:00,28.1,17.5,29.92,WNW,292,2.0,7.0,64,0.00,,,-99.99,WeatherLink 5.7,2013-01-05 06:46:00,
2013-01-05 01:50:00,28.2,17.6,29.93,WNW,292,3.0,11.0,64,0.00,,,-99.99,WeatherLink 5.7,2013-01-05 06:50:00,
2013-01-05 02:00:00,28.7,18.1,29.93,SW,225,2.0,8.0,64,0.00,,,-99.99,WeatherLink 5.7,2013-01-05 07:00:00,
2013-01-05 02:01:00,28.4,17.8,29.93,West,270,2.0,6.0,64,0.00,,,-99.99,WeatherLink 5.7,2013-01-05 07:01:00,
2013-01-05 02:05:00,28.8,18.1,29.93,West,270,3.0,7.0,64,0.00,,,-99.99,WeatherLink 5.7,2013-01-05 07:05:00,
2013-01-05 02:15:00,29.0,18.3,29.94,WNW,292,2.0,11.0,64,0.00,,,-99.99,WeatherLink 5.7,2013-01-05 07:15:00,
2013-01-05 02:16:00,29.0,18.3,29.93,WNW,292,1.0,7.0,64,0.00,,,-99.99,WeatherLink 5.7,2013-01-05 07:16:00,
2013-01-05 02:20:00,29.1,18.1,29.94,WNW,292,2.0,10.0,63,0.00,,,-99.99,WeatherLink 5.7,2013-01-05 07:20:00,
2013-01-05 02:30:00,29.3,18.3,29.94,WNW,292,1.0,7.0,63,0.00,,,-99.99,WeatherLink 5.7,2013-01-05 07:30:00,
2013-01-05 02:31:00,29.3,18.3,29.94,West,270,2.0,8.0,63,0.00,,,-99.99,WeatherLink 5.7,2013-01-05 07:31:00,
2013-01-05 02:35:00,29.4,18.0,29.94,WNW,292,3.0,8.0,62,0.00,,,-99.99,WeatherLink 5.7,2013-01-05 07:35:00,
2013-01-05 02:45:00,29.5,18.4,29.95,WNW,292,3.0,12.0,63,0.00,,,-99.99,WeatherLink 5.7,2013-01-05 07:45:00,
2013-01-05 02:46:00,29.5,18.4,29.94,WNW,292,3.0,12.0,63,0.00,,,-99.99,WeatherLink 5.7,2013-01-05 07:46:00,
2013-01-05 02:50:00,29.5,18.4,29.95,WNW,292,2.0,9.0,63,0.00,,,-99.99,WeatherLink 5.7,2013-01-05 07:50:00,
2013-01-05 03:00:00,29.5,18.8,29.94,West,270,1.0,5.0,64,0.00,,,-99.99,WeatherLink 5.7,2013-01-05 08:00:00,
2013-01-05 03:01:00,29.5,18.4,29.95,NW,315,2.0,7.0,63,0.00,,,-99.99,WeatherLink 5.7,2013-01-05 08:01:00,
2013-01-05 03:05:00,29.5,18.8,29.94,West,270,1.0,3.0,64,0.00,,,-99.99,WeatherLink 5.7,2013-01-05 08:05:00,
2013-01-05 03:15:00,29.5,18.8,29.95,WNW,292,2.0,6.0,64,0.00,,,-99.99,WeatherLink 5.7,2013-01-05 08:15:00,
2013-01-05 03:16:00,29.5,18.8,29.94,WNW,292,1.0,7.0,64,0.00,,,-99.99,WeatherLink 5.7,2013-01-05 08:16:00,
2013-01-05 03:20:00,29.5,18.8,29.95,SW,225,0.0,4.0,64,0.00,,,-99.99,WeatherLink 5.7,2013-01-05 08:20:00,
2013-01-05 03:30:00,29.5,19.2,29.96,NW,315,1.0,10.0,65,0.00,,,-99.99,WeatherLink 5.7,2013-01-05 08:30:00,
2013-01-05 03:31:00,29.5,18.8,29.95,NW,315,0.0,4.0,64,0.00,,,-99.99,WeatherLink 5.7,2013-01-05 08:31:00,
2013-01-05 03:35:00,29.7,19.0,29.96,West,270,1.0,5.0,64,0.00,,,-99.99,WeatherLink 5.7,2013-01-05 08:35:00,
2013-01-05 03:40:00,29.7,19.0,29.96,WNW,292,3.0,11.0,64,0.00,,,-99.99,WeatherLink 5.7,2013-01-05 08:40:00,
2013-01-05 03:45:00,29.7,19.0,29.96,West,270,0.0,2.0,64,0.00,,,-99.99,WeatherLink 5.7,2013-01-05 08:45:00,
2013-01-05 03:50:00,29.5,18.8,29.96,West,270,4.0,11.0,64,0.00,,,-99.99,WeatherLink 5.7,2013-01-05 08:50:00,
2013-01-05 03:55:00,29.5,19.2,29.96,WNW,292,0.0,5.0,65,0.00,,,-99.99,WeatherLink 5.7,2013-01-05 08:55:00,
2013-01-05 04:00:00,29.5,19.2,29.96,NW,315,0.0,5.0,65,0.00,,,-99.99,WeatherLink 5.7,2013-01-05 09:00:00,
2013-01-05 04:05:00,29.5,18.8,29.96,WNW,292,2.0,7.0,64,0.00,,,-99.99,WeatherLink 5.7,2013-01-05 09:05:00,
2013-01-05 04:10:00,29.5,18.8,29.96,WNW,292,1.0,6.0,64,0.00,,,-99.99,WeatherLink 5.7,2013-01-05 09:10:00,
2013-01-05 04:15:00,29.7,19.4,29.97,NW,315,1.0,6.0,65,0.00,,,-99.99,WeatherLink 5.7,2013-01-05 09:15:00,
2013-01-05 04:20:00,29.7,19.0,29.97,WSW,247,0.0,3.0,64,0.00,,,-99.99,WeatherLink 5.7,2013-01-05 09:20:00,
2013-01-05 04:25:00,29.7,19.4,29.97,WNW,292,1.0,6.0,65,0.00,,,-99.99,WeatherLink 5.7,2013-01-05 09:25:00,
2013-01-05 04:30:00,29.8,19.5,29.98,WNW,292,0.0,3.0,65,0.00,,,-99.99,WeatherLink 5.7,2013-01-05 09:30:00,
2013-01-05 04:35:00,29.8,19.5,29.98,NNW,337,0.0,3.0,65,0.00,,,-99.99,WeatherLink 5.7,2013-01-05 09:35:00,
2013-01-05 04:40:00,29.8,19.5,29.98,NW,315,1.0,7.0,65,0.00,,,-99.99,WeatherLink 5.7,2013-01-05 09:40:00,
2013-01-05 04:45:00,29.7,19.7,29.98,North,-999,0.0,0.0,66,0.00,,,-99.99,WeatherLink 5.7,2013-01-05 09:45:00,
2013-01-05 04:50:00,29.5,19.2,29.98,WNW,292,3.0,8.0,65,0.00,,,-99.99,WeatherLink 5.7,2013-01-05 09:50:00,
2013-01-05 05:00:00,29.5,19.5,29.99,WNW,292,0.0,3.0,66,0.00,,,-99.99,WeatherLink 5.7,2013-01-05 10:00:00,
2013-01-05 05:01:00,29.5,19.5,29.98,WNW,292,1.0,7.0,66,0.00,,,-99.99,WeatherLink 5.7,2013-01-05 10:01:00,
2013-01-05 05:05:00,29.5,19.5,29.99,NW,315,0.0,3.0,66,0.00,,,-99.99,WeatherLink 5.7,2013-01-05 10:05:00,
2013-01-05 05:15:00,29.5,19.5,29.99,NW,315,2.0,6.0,66,0.00,,,-99.99,WeatherLink 5.7,2013-01-05 10:15:00,
2013-01-05 05:16:00,29.5,19.5,29.99,NW,315,0.0,5.0,66,0.00,,,-99.99,WeatherLink 5.7,2013-01-05 10:16:00,
2013-01-05 05:20:00,29.5,19.5,29.99,WNW,292,1.0,6.0,66,0.00,,,-99.99,WeatherLink 5.7,2013-01-05 10:20:00,
2013-01-05 05:30:00,29.5,19.5,30.00,WNW,292,1.0,4.0,66,0.00,,,-99.99,WeatherLink 5.7,2013-01-05 10:30:00,
2013-01-05 05:31:00,29.5,19.5,29.99,WNW,292,1.0,5.0,66,0.00,,,-99.99,WeatherLink 5.7,2013-01-05 10:31:00,
2013-01-05 05:35:00,29.5,19.5,30.00,WNW,292,2.0,4.0,66,0.00,,,-99.99,WeatherLink 5.7,2013-01-05 10:35:00,
2013-01-05 05:45:00,29.4,19.4,30.01,WNW,292,3.0,7.0,66,0.00,,,-99.99,WeatherLink 5.7,2013-01-05 10:45:00,
2013-01-05 05:46:00,29.5,19.5,30.00,WNW,292,4.0,6.0,66,0.00,,,-99.99,WeatherLink 5.7,2013-01-05 10:46:00,
2013-01-05 05:50:00,29.4,19.4,30.01,WNW,292,3.0,10.0,66,0.00,,,-99.99,WeatherLink 5.7,2013-01-05 10:50:00,
2013-01-05 06:00:00,29.4,19.4,30.02,NW,315,2.0,7.0,66,0.00,,,-99.99,WeatherLink 5.7,2013-01-05 11:00:00,
2013-01-05 06:01:00,29.4,19.4,30.01,WNW,292,2.0,6.0,66,0.00,,,-99.99,WeatherLink 5.7,2013-01-05 11:01:00,
2013-01-05 06:05:00,29.4,19.4,30.02,WNW,292,4.0,11.0,66,0.00,,,-99.99,WeatherLink 5.7,2013-01-05 11:05:00,
2013-01-05 06:15:00,29.4,19.4,30.03,West,270,2.0,8.0,66,0.00,,,-99.99,WeatherLink 5.7,2013-01-05 11:15:00,
2013-01-05 06:16:00,29.4,19.8,30.02,WNW,292,3.0,11.0,67,0.00,,,-99.99,WeatherLink 5.7,2013-01-05 11:16:00,
2013-01-05 06:20:00,29.5,19.5,30.03,West,270,2.0,7.0,66,0.00,,,-99.99,WeatherLink 5.7,2013-01-05 11:20:00,
2013-01-05 06:30:00,29.7,20.1,30.04,West,270,1.0,6.0,67,0.00,,,-99.99,WeatherLink 5.7,2013-01-05 11:30:00,
2013-01-05 06:31:00,29.5,19.9,30.03,West,270,1.0,6.0,67,0.00,,,-99.99,WeatherLink 5.7,2013-01-05 11:31:00,
2013-01-05 06:35:00,29.7,19.7,30.04,West,270,1.0,5.0,66,0.00,,,-99.99,WeatherLink 5.7,2013-01-05 11:35:00,
2013-01-05 06:45:00,29.8,20.2,30.05,West,270,1.0,6.0,67,0.00,,,-99.99,WeatherLink 5.7,2013-01-05 11:45:00,
2013-01-05 06:46:00,29.8,19.8,30.04,WNW,292,2.0,9.0,66,0.00,,,-99.99,WeatherLink 5.7,2013-01-05 11:46:00,
2013-01-05 06:50:00,29.8,20.2,30.05,WSW,247,0.0,7.0,67,0.00,,,-99.99,WeatherLink 5.7,2013-01-05 11:50:00,
2013-01-05 07:00:00,30.0,20.4,30.06,WSW,247,1.0,3.0,67,0.00,,,-99.99,WeatherLink 5.7,2013-01-05 12:00:00,
2013-01-05 07:01:00,30.0,20.0,30.05,WSW,247,0.0,3.0,66,0.00,,,-99.99,WeatherLink 5.7,2013-01-05 12:01:00,
2013-01-05 07:05:00,30.0,20.0,30.06,WSW,247,0.0,1.0,66,0.00,,,-99.99,WeatherLink 5.7,2013-01-05 12:05:00,
2013-01-05 07:15:00,30.0,20.7,30.07,WSW,247,0.0,2.0,68,0.00,,,-99.99,WeatherLink 5.7,2013-01-05 12:15:00,
2013-01-05 07:16:00,30.1,20.8,30.06,North,-999,0.0,0.0,68,0.00,,,-99.99,WeatherLink 5.7,2013-01-05 12:16:00,
2013-01-05 07:20:00,30.1,20.8,30.07,West,270,1.0,6.0,68,0.00,,,-99.99,WeatherLink 5.7,2013-01-05 12:20:00,
2013-01-05 07:30:00,30.1,21.5,30.08,WSW,247,2.0,4.0,70,0.00,,,-99.99,WeatherLink 5.7,2013-01-05 12:30:00,
2013-01-05 07:31:00,30.1,21.2,30.07,West,270,1.0,3.0,69,0.00,,,-99.99,WeatherLink 5.7,2013-01-05 12:31:00,
2013-01-05 07:35:00,30.1,21.5,30.08,WNW,292,2.0,6.0,70,0.00,,,-99.99,WeatherLink 5.7,2013-01-05 12:35:00,
2013-01-05 07:45:00,30.6,21.3,30.09,NW,315,1.0,4.0,68,0.00,,,-99.99,WeatherLink 5.7,2013-01-05 12:45:00,
2013-01-05 07:46:00,30.4,21.1,30.08,West,270,2.0,6.0,68,0.00,,,-99.99,WeatherLink 5.7,2013-01-05 12:46:00,
2013-01-05 07:50:00,30.7,21.7,30.09,WNW,292,1.0,7.0,69,0.00,,,-99.99,WeatherLink 5.7,2013-01-05 12:50:00,
2013-01-05 08:00:00,31.0,21.3,30.10,WNW,292,2.0,6.0,67,0.00,,,-99.99,WeatherLink 5.7,2013-01-05 13:00:00,
2013-01-05 08:01:00,30.9,21.2,30.09,WNW,292,3.0,7.0,67,0.00,,,-99.99,WeatherLink 5.7,2013-01-05 13:01:00,
2013-01-05 08:05:00,31.2,21.2,30.10,WNW,292,3.0,8.0,66,0.00,,,-99.99,WeatherLink 5.7,2013-01-05 13:05:00,
2013-01-05 08:15:00,31.5,21.4,30.10,West,270,3.0,7.0,66,0.00,,,-99.99,WeatherLink 5.7,2013-01-05 13:15:00,
2013-01-05 08:16:00,31.3,21.3,30.10,West,270,2.0,8.0,66,0.00,,,-99.99,WeatherLink 5.7,2013-01-05 13:16:00,
2013-01-05 08:20:00,31.8,21.7,30.10,NW,315,1.0,6.0,66,0.00,,,-99.99,WeatherLink 5.7,2013-01-05 13:20:00,
2013-01-05 08:30:00,32.1,21.7,30.12,WNW,292,3.0,8.0,65,0.00,,,-99.99,WeatherLink 5.7,2013-01-05 13:30:00,
2013-01-05 08:31:00,31.9,21.8,30.10,NW,315,2.0,7.0,66,0.00,,,-99.99,WeatherLink 5.7,2013-01-05 13:31:00,
2013-01-05 08:35:00,32.4,21.9,30.12,WNW,292,2.0,6.0,65,0.00,,,-99.99,WeatherLink 5.7,2013-01-05 13:35:00,
2013-01-05 08:45:00,32.9,22.4,30.13,NW,315,0.0,3.0,65,0.00,,,-99.99,WeatherLink 5.7,2013-01-05 13:45:00,
2013-01-05 08:46:00,32.7,21.9,30.12,West,270,4.0,10.0,64,0.00,,,-99.99,WeatherLink 5.7,2013-01-05 13:46:00,
2013-01-05 08:50:00,33.1,22.2,30.13,WNW,292,3.0,8.0,64,0.00,,,-99.99,WeatherLink 5.7,2013-01-05 13:50:00,
2013-01-05 09:00:00,33.5,22.6,30.15,NW,315,4.0,11.0,64,0.00,,,-99.99,WeatherLink 5.7,2013-01-05 14:00:00,
2013-01-05 09:01:00,33.2,22.3,30.13,WNW,292,3.0,11.0,64,0.00,,,-99.99,WeatherLink 5.7,2013-01-05 14:01:00,
2013-01-05 09:05:00,33.7,23.2,30.15,NW,315,4.0,11.0,65,0.00,,,-99.99,WeatherLink 5.7,2013-01-05 14:05:00,
2013-01-05 09:15:00,34.3,23.0,30.15,WNW,292,5.0,14.0,63,0.00,,,-99.99,WeatherLink 5.7,2013-01-05 14:15:00,
2013-01-05 09:16:00,34.0,23.1,30.15,WNW,292,5.0,12.0,64,0.00,,,-99.99,WeatherLink 5.7,2013-01-05 14:16:00,
2013-01-05 09:20:00,34.7,22.6,30.15,West,270,7.0,14.0,61,0.00,,,-99.99,WeatherLink 5.7,2013-01-05 14:20:00,
2013-01-05 09:30:00,35.2,22.3,30.16,NNW,337,8.0,16.0,59,0.00,,,-99.99,WeatherLink 5.7,2013-01-05 14:30:00,
2013-01-05 09:31:00,34.9,22.4,30.15,WNW,292,8.0,17.0,60,0.00,,,-99.99,WeatherLink 5.7,2013-01-05 14:31:00,
2013-01-05 09:35:00,35.3,22.4,30.16,NNW,337,5.0,13.0,59,0.00,,,-99.99,WeatherLink 5.7,2013-01-05 14:35:00,
2013-01-05 09:45:00,35.6,22.3,30.15,NW,315,9.0,20.0,58,0.00,,,-99.99,WeatherLink 5.7,2013-01-05 14:45:00,
2013-01-05 09:46:00,35.5,22.2,30.16,NW,315,7.0,18.0,58,0.00,,,-99.99,WeatherLink 5.7,2013-01-05 14:46:00,
2013-01-05 09:50:00,35.9,21.7,30.15,NW,315,8.0,18.0,56,0.00,,,-99.99,WeatherLink 5.7,2013-01-05 14:50:00,
2013-01-05 10:00:00,36.2,21.6,30.15,NW,315,7.0,15.0,55,0.00,,,-99.99,WeatherLink 5.7,2013-01-05 15:00:00,
2013-01-05 10:01:00,36.0,22.2,30.15,NW,315,5.0,12.0,57,0.00,,,-99.99,WeatherLink 5.7,2013-01-05 15:01:00,
2013-01-05 10:05:00,36.3,22.1,30.15,NW,315,9.0,20.0,56,0.00,,,-99.99,WeatherLink 5.7,2013-01-05 15:05:00,
2013-01-05 10:15:00,36.5,21.8,30.15,NNW,337,5.0,14.0,55,0.00,,,-99.99,WeatherLink 5.7,2013-01-05 15:15:00,
2013-01-05 10:16:00,36.3,21.7,30.15,NW,315,7.0,15.0,55,0.00,,,-99.99,WeatherLink 5.7,2013-01-05 15:16:00,
2013-01-05 10:20:00,36.8,21.3,30.15,NW,315,8.0,18.0,53,0.00,,,-99.99,WeatherLink 5.7,2013-01-05 15:20:00,
2013-01-05 10:30:00,37.3,21.7,30.16,NW,315,6.0,14.0,53,0.00,,,-99.99,WeatherLink 5.7,2013-01-05 15:30:00,
2013-01-05 10:31:00,37.0,21.4,30.15,NW,315,6.0,14.0,53,0.00,,,-99.99,WeatherLink 5.7,2013-01-05 15:31:00,
2013-01-05 10:35:00,37.3,21.3,30.16,NW,315,10.0,18.0,52,0.00,,,-99.99,WeatherLink 5.7,2013-01-05 15:35:00,
2013-01-05 10:45:00,37.3,21.3,30.17,NW,315,8.0,27.0,52,0.00,,,-99.99,WeatherLink 5.7,2013-01-05 15:45:00,
2013-01-05 10:46:00,37.3,21.3,30.16,NW,315,8.0,20.0,52,0.00,,,-99.99,WeatherLink 5.7,2013-01-05 15:46:00,
2013-01-05 10:50:00,37.5,21.9,30.17,WNW,292,7.0,18.0,53,0.00,,,-99.99,WeatherLink 5.7,2013-01-05 15:50:00,
2013-01-05 11:00:00,37.9,21.4,30.17,WNW,292,9.0,18.0,51,0.00,,,-99.99,WeatherLink 5.7,2013-01-05 16:00:00,
2013-01-05 11:01:00,37.8,22.2,30.17,NNW,337,5.0,14.0,53,0.00,,,-99.99,WeatherLink 5.7,2013-01-05 16:01:00,
2013-01-05 11:05:00,37.8,21.3,30.17,WNW,292,10.0,17.0,51,0.00,,,-99.99,WeatherLink 5.7,2013-01-05 16:05:00,
2013-01-05 11:15:00,38.0,21.0,30.17,NW,315,9.0,19.0,50,0.00,,,-99.99,WeatherLink 5.7,2013-01-05 16:15:00,
2013-01-05 11:16:00,37.9,21.4,30.17,NW,315,9.0,16.0,51,0.00,,,-99.99,WeatherLink 5.7,2013-01-05 16:16:00,
2013-01-05 11:20:00,37.9,21.8,30.17,North,0,7.0,20.0,52,0.00,,,-99.99,WeatherLink 5.7,2013-01-05 16:20:00,
2013-01-05 11:30:00,38.2,21.6,30.17,WNW,292,4.0,11.0,51,0.00,,,-99.99,WeatherLink 5.7,2013-01-05 16:30:00,
2013-01-05 11:31:00,38.0,21.5,30.17,NNW,337,3.0,11.0,51,0.00,,,-99.99,WeatherLink 5.7,2013-01-05 16:31:00,
2013-01-05 11:35:00,38.3,21.7,30.17,NW,315,7.0,13.0,51,0.00,,,-99.99,WeatherLink 5.7,2013-01-05 16:35:00,
2013-01-05 11:45:00,37.9,20.9,30.17,NW,315,7.0,14.0,50,0.00,,,-99.99,WeatherLink 5.7,2013-01-05 16:45:00,
2013-01-05 11:46:00,38.2,21.2,30.17,North,0,10.0,21.0,50,0.00,,,-99.99,WeatherLink 5.7,2013-01-05 16:46:00,
2013-01-05 11:50:00,37.8,21.3,30.17,NW,315,7.0,18.0,51,0.00,,,-99.99,WeatherLink 5.7,2013-01-05 16:50:00,
2013-01-05 12:00:00,37.6,21.5,30.17,WNW,292,12.0,21.0,52,0.00,,,-99.99,WeatherLink 5.7,2013-01-05 17:00:00,
2013-01-05 12:02:00,37.6,21.5,30.17,NW,315,8.0,19.0,52,0.00,,,-99.99,WeatherLink 5.7,2013-01-05 17:02:00,
2013-01-05 12:05:00,37.8,21.3,30.17,NW,315,10.0,18.0,51,0.00,,,-99.99,WeatherLink 5.7,2013-01-05 17:05:00,
2013-01-05 12:15:00,38.0,21.9,30.17,NW,315,7.0,17.0,52,0.00,,,-99.99,WeatherLink 5.7,2013-01-05 17:15:00,
2013-01-05 12:16:00,37.9,21.4,30.17,NW,315,8.0,19.0,51,0.00,,,-99.99,WeatherLink 5.7,2013-01-05 17:16:00,
2013-01-05 12:20:00,38.2,21.6,30.17,NW,315,6.0,16.0,51,0.00,,,-99.99,WeatherLink 5.7,2013-01-05 17:20:00,
2013-01-05 12:30:00,38.5,20.5,30.17,North,0,7.0,14.0,48,0.00,,,-99.99,WeatherLink 5.7,2013-01-05 17:30:00,
2013-01-05 12:31:00,38.5,21.0,30.17,NW,315,7.0,14.0,49,0.00,,,-99.99,WeatherLink 5.7,2013-01-05 17:31:00,
2013-01-05 12:35:00,38.6,20.6,30.17,NNW,337,6.0,12.0,48,0.00,,,-99.99,WeatherLink 5.7,2013-01-05 17:35:00,
2013-01-05 12:45:00,38.6,19.6,30.16,NNW,337,10.0,19.0,46,0.00,,,-99.99,WeatherLink 5.7,2013-01-05 17:45:00,
2013-01-05 12:46:00,38.8,20.3,30.17,North,0,7.0,13.0,47,0.00,,,-99.99,WeatherLink 5.7,2013-01-05 17:46:00,
2013-01-05 12:50:00,38.5,19.5,30.16,NW,315,9.0,17.0,46,0.00,,,-99.99,WeatherLink 5.7,2013-01-05 17:50:00,
2013-01-05 13:00:00,37.9,19.4,30.16,NW,315,11.0,21.0,47,0.00,,,-99.99,WeatherLink 5.7,2013-01-05 18:00:00,
2013-01-05 13:01:00,38.2,19.2,30.16,NW,315,10.0,22.0,46,0.00,,,-99.99,WeatherLink 5.7,2013-01-05 18:01:00,
2013-01-05 13:05:00,37.8,19.3,30.16,NW,315,9.0,17.0,47,0.00,,,-99.99,WeatherLink 5.7,2013-01-05 18:05:00,
2013-01-05 13:15:00,38.0,19.0,30.16,NW,315,7.0,21.0,46,0.00,,,-99.99,WeatherLink 5.7,2013-01-05 18:15:00,
2013-01-05 13:16:00,37.8,18.8,30.16,NW,315,11.0,22.0,46,0.00,,,-99.99,WeatherLink 5.7,2013-01-05 18:16:00,
2013-01-05 13:20:00,38.0,19.0,30.16,NW,315,10.0,18.0,46,0.00,,,-99.99,WeatherLink 5.7,2013-01-05 18:20:00,
2013-01-05 13:30:00,37.9,19.4,30.16,NW,315,6.0,13.0,47,0.00,,,-99.99,WeatherLink 5.7,2013-01-05 18:30:00,
2013-01-05 13:31:00,37.8,19.3,30.16,WNW,292,8.0,19.0,47,0.00,,,-99.99,WeatherLink 5.7,2013-01-05 18:31:00,
2013-01-05 13:35:00,38.2,19.7,30.16,NW,315,8.0,17.0,47,0.00,,,-99.99,WeatherLink 5.7,2013-01-05 18:35:00,
2013-01-05 13:45:00,38.0,19.5,30.15,NW,315,8.0,17.0,47,0.00,,,-99.99,WeatherLink 5.7,2013-01-05 18:45:00,
2013-01-05 13:46:00,38.2,19.7,30.16,NW,315,4.0,10.0,47,0.00,,,-99.99,WeatherLink 5.7,2013-01-05 18:46:00,
2013-01-05 13:50:00,38.0,19.5,30.15,NW,315,9.0,18.0,47,0.00,,,-99.99,WeatherLink 5.7,2013-01-05 18:50:00,
2013-01-05 14:00:00,37.9,19.4,30.15,NW,315,8.0,16.0,47,0.00,,,-99.99,WeatherLink 5.7,2013-01-05 19:00:00,
2013-01-05 14:01:00,38.0,19.5,30.15,NNW,337,7.0,14.0,47,0.00,,,-99.99,WeatherLink 5.7,2013-01-05 19:01:00,
2013-01-05 14:05:00,37.6,19.7,30.15,NW,315,4.0,11.0,48,0.00,,,-99.99,WeatherLink 5.7,2013-01-05 19:05:00,
2013-01-05 14:15:00,37.9,19.9,30.16,NNW,337,4.0,11.0,48,0.00,,,-99.99,WeatherLink 5.7,2013-01-05 19:15:00,
2013-01-05 14:16:00,37.8,19.3,30.15,North,0,3.0,8.0,47,0.00,,,-99.99,WeatherLink 5.7,2013-01-05 19:16:00,
2013-01-05 14:20:00,37.8,19.8,30.16,NW,315,4.0,10.0,48,0.00,,,-99.99,WeatherLink 5.7,2013-01-05 19:20:00,
2013-01-05 14:30:00,37.8,19.8,30.16,NW,315,5.0,11.0,48,0.00,,,-99.99,WeatherLink 5.7,2013-01-05 19:30:00,
2013-01-05 14:31:00,37.8,19.8,30.16,NW,315,7.0,12.0,48,0.00,,,-99.99,WeatherLink 5.7,2013-01-05 19:31:00,
2013-01-05 14:35:00,37.6,19.7,30.16,NW,315,7.0,14.0,48,0.00,,,-99.99,WeatherLink 5.7,2013-01-05 19:35:00,
2013-01-05 14:45:00,37.2,19.3,30.18,WNW,292,1.0,7.0,48,0.00,,,-99.99,WeatherLink 5.7,2013-01-05 19:45:00,
2013-01-05 14:46:00,37.5,19.6,30.16,WNW,292,4.0,12.0,48,0.00,,,-99.99,WeatherLink 5.7,2013-01-05 19:46:00,
2013-01-05 14:50:00,37.0,19.1,30.18,WNW,292,2.0,8.0,48,0.00,,,-99.99,WeatherLink 5.7,2013-01-05 19:50:00,
2013-01-05 15:00:00,36.9,20.0,30.17,NW,315,4.0,7.0,50,0.00,,,-99.99,WeatherLink 5.7,2013-01-05 20:00:00,
2013-01-05 15:01:00,37.0,19.6,30.18,WNW,292,3.0,8.0,49,0.00,,,-99.99,WeatherLink 5.7,2013-01-05 20:01:00,
2013-01-05 15:05:00,36.9,19.5,30.17,NW,315,5.0,13.0,49,0.00,,,-99.99,WeatherLink 5.7,2013-01-05 20:05:00,
2013-01-05 15:15:00,36.9,19.5,30.18,NNW,337,2.0,10.0,49,0.00,,,-99.99,WeatherLink 5.7,2013-01-05 20:15:00,
2013-01-05 15:16:00,36.9,19.5,30.17,NW,315,2.0,6.0,49,0.00,,,-99.99,WeatherLink 5.7,2013-01-05 20:16:00,
2013-01-05 15:20:00,36.8,18.9,30.18,NW,315,2.0,8.0,48,0.00,,,-99.99,WeatherLink 5.7,2013-01-05 20:20:00,
2013-01-05 15:30:00,36.6,19.2,30.20,WNW,292,3.0,11.0,49,0.00,,,-99.99,WeatherLink 5.7,2013-01-05 20:30:00,
2013-01-05 15:31:00,36.6,18.7,30.18,NW,315,3.0,11.0,48,0.00,,,-99.99,WeatherLink 5.7,2013-01-05 20:31:00,
2013-01-05 15:35:00,36.5,19.6,30.20,NW,315,4.0,8.0,50,0.00,,,-99.99,WeatherLink 5.7,2013-01-05 20:35:00,
2013-01-05 15:45:00,36.0,19.6,30.20,NW,315,1.0,8.0,51,0.00,,,-99.99,WeatherLink 5.7,2013-01-05 20:45:00,
2013-01-05 15:46:00,36.2,19.3,30.20,NW,315,4.0,11.0,50,0.00,,,-99.99,WeatherLink 5.7,2013-01-05 20:46:00,
2013-01-05 15:50:00,35.9,19.5,30.20,WNW,292,3.0,10.0,51,0.00,,,-99.99,WeatherLink 5.7,2013-01-05 20:50:00,
2013-01-05 16:00:00,35.6,19.7,30.21,WNW,292,1.0,3.0,52,0.00,,,-99.99,WeatherLink 5.7,2013-01-05 21:00:00,
2013-01-05 16:01:00,35.8,19.4,30.20,WNW,292,2.0,11.0,51,0.00,,,-99.99,WeatherLink 5.7,2013-01-05 21:01:00,
2013-01-05 16:05:00,35.3,19.0,30.21,WNW,292,3.0,8.0,51,0.00,,,-99.99,WeatherLink 5.7,2013-01-05 21:05:00,
2013-01-05 16:15:00,34.9,18.6,30.21,WNW,292,2.0,7.0,51,0.00,,,-99.99,WeatherLink 5.7,2013-01-05 21:15:00,
2013-01-05 16:16:00,35.0,18.7,30.21,West,270,2.0,7.0,51,0.00,,,-99.99,WeatherLink 5.7,2013-01-05 21:16:00,
2013-01-05 16:20:00,34.6,19.2,30.21,WNW,292,0.0,4.0,53,0.00,,,-99.99,WeatherLink 5.7,2013-01-05 21:20:00,
2013-01-05 16:30:00,34.3,18.5,30.21,NW,315,1.0,3.0,52,0.00,,,-99.99,WeatherLink 5.7,2013-01-05 21:30:00,
2013-01-05 16:35:00,33.8,18.5,30.20,North,-999,0.0,0.0,53,0.00,,,-99.99,WeatherLink 5.7,2013-01-05 21:35:00,
2013-01-05 16:45:00,33.4,18.1,30.21,North,-999,0.0,0.0,53,0.00,,,-99.99,WeatherLink 5.7,2013-01-05 21:45:00,
2013-01-05 16:46:00,33.5,18.2,30.20,WNW,292,0.0,2.0,53,0.00,,,-99.99,WeatherLink 5.7,2013-01-05 21:46:00,
2013-01-05 16:50:00,33.2,17.9,30.21,North,-999,0.0,0.0,53,0.00,,,-99.99,WeatherLink 5.7,2013-01-05 21:50:00,
2013-01-05 17:00:00,32.8,17.5,30.22,North,-999,0.0,0.0,53,0.00,,,-99.99,WeatherLink 5.7,2013-01-05 22:00:00,
2013-01-05 17:01:00,33.1,17.8,30.21,North,-999,0.0,0.0,53,0.00,,,-99.99,WeatherLink 5.7,2013-01-05 22:01:00,
2013-01-05 17:05:00,32.5,18.5,30.22,North,-999,0.0,0.0,56,0.00,,,-99.99,WeatherLink 5.7,2013-01-05 22:05:00,
2013-01-05 17:15:00,31.3,17.8,30.23,North,-999,0.0,0.0,57,0.00,,,-99.99,WeatherLink 5.7,2013-01-05 22:15:00,
2013-01-05 17:16:00,32.1,18.6,30.22,North,-999,0.0,0.0,57,0.00,,,-99.99,WeatherLink 5.7,2013-01-05 22:16:00,
2013-01-05 17:20:00,31.0,17.5,30.23,North,-999,0.0,0.0,57,0.00,,,-99.99,WeatherLink 5.7,2013-01-05 22:20:00,
2013-01-05 17:30:00,30.0,18.9,30.23,North,-999,0.0,0.0,63,0.00,,,-99.99,WeatherLink 5.7,2013-01-05 22:30:00,
2013-01-05 17:31:00,30.7,18.8,30.23,North,-999,0.0,0.0,61,0.00,,,-99.99,WeatherLink 5.7,2013-01-05 22:31:00,
2013-01-05 17:35:00,29.4,18.3,30.23,North,-999,0.0,0.0,63,0.00,,,-99.99,WeatherLink 5.7,2013-01-05 22:35:00,
2013-01-05 17:45:00,28.8,18.1,30.24,North,-999,0.0,0.0,64,0.00,,,-99.99,WeatherLink 5.7,2013-01-05 22:45:00,
2013-01-05 17:46:00,29.0,18.0,30.23,North,-999,0.0,0.0,63,0.00,,,-99.99,WeatherLink 5.7,2013-01-05 22:46:00,
2013-01-05 17:50:00,28.2,18.3,30.24,North,-999,0.0,0.0,66,0.00,,,-99.99,WeatherLink 5.7,2013-01-05 22:50:00,
2013-01-05 18:00:00,27.6,17.4,30.25,North,-999,0.0,0.0,65,0.00,,,-99.99,WeatherLink 5.7,2013-01-05 23:00:00,
2013-01-05 18:01:00,27.8,17.9,30.24,North,-999,0.0,0.0,66,0.00,,,-99.99,WeatherLink 5.7,2013-01-05 23:01:00,
2013-01-05 18:05:00,27.6,17.7,30.25,North,-999,0.0,0.0,66,0.00,,,-99.99,WeatherLink 5.7,2013-01-05 23:05:00,
2013-01-05 18:15:00,26.6,17.8,30.26,North,-999,0.0,0.0,69,0.00,,,-99.99,WeatherLink 5.7,2013-01-05 23:15:00,
2013-01-05 18:16:00,27.0,17.8,30.25,North,-999,0.0,0.0,68,0.00,,,-99.99,WeatherLink 5.7,2013-01-05 23:16:00,
2013-01-05 18:20:00,26.6,17.1,30.26,North,-999,0.0,0.0,67,0.00,,,-99.99,WeatherLink 5.7,2013-01-05 23:20:00,
2013-01-05 18:30:00,26.1,17.6,30.27,North,-999,0.0,0.0,70,0.00,,,-99.99,WeatherLink 5.7,2013-01-05 23:30:00,
2013-01-05 18:31:00,26.4,17.3,30.26,North,-999,0.0,0.0,68,0.00,,,-99.99,WeatherLink 5.7,2013-01-05 23:31:00,
2013-01-05 18:35:00,26.3,17.5,30.27,North,-999,0.0,0.0,69,0.00,,,-99.99,WeatherLink 5.7,2013-01-05 23:35:00,
2013-01-05 18:45:00,25.8,17.4,30.27,North,-999,0.0,0.0,70,0.00,,,-99.99,WeatherLink 5.7,2013-01-05 23:45:00,
2013-01-05 18:46:00,26.1,17.0,30.27,North,-999,0.0,0.0,68,0.00,,,-99.99,WeatherLink 5.7,2013-01-05 23:46:00,
2013-01-05 18:50:00,25.8,17.4,30.27,North,-999,0.0,0.0,70,0.00,,,-99.99,WeatherLink 5.7,2013-01-05 23:50:00,
2013-01-05 19:00:00,25.8,17.4,30.27,North,-999,0.0,0.0,70,0.00,,,-99.99,WeatherLink 5.7,2013-01-06 00:00:00,
2013-01-05 19:01:00,25.8,17.0,30.27,North,-999,0.0,0.0,69,0.00,,,-99.99,WeatherLink 5.7,2013-01-06 00:01:00,
2013-01-05 19:05:00,25.6,17.2,30.27,North,-999,0.0,0.0,70,0.00,,,-99.99,WeatherLink 5.7,2013-01-06 00:05:00,
2013-01-05 19:15:00,24.7,17.3,30.27,North,-999,0.0,0.0,73,0.00,,,-99.99,WeatherLink 5.7,2013-01-06 00:15:00,
2013-01-05 19:16:00,25.0,16.9,30.27,North,-999,0.0,0.0,71,0.00,,,-99.99,WeatherLink 5.7,2013-01-06 00:16:00,
2013-01-05 19:20:00,24.7,17.0,30.27,North,-999,0.0,0.0,72,0.00,,,-99.99,WeatherLink 5.7,2013-01-06 00:20:00,
2013-01-05 19:30:00,25.4,16.6,30.26,North,-999,0.0,0.0,69,0.00,,,-99.99,WeatherLink 5.7,2013-01-06 00:30:00,
2013-01-05 19:31:00,24.8,16.7,30.27,North,-999,0.0,0.0,71,0.00,,,-99.99,WeatherLink 5.7,2013-01-06 00:31:00,
2013-01-05 19:35:00,25.7,16.3,30.26,North,-999,0.0,0.0,67,0.00,,,-99.99,WeatherLink 5.7,2013-01-06 00:35:00,
2013-01-05 19:45:00,25.3,16.5,30.26,North,-999,0.0,0.0,69,0.00,,,-99.99,WeatherLink 5.7,2013-01-06 00:45:00,
2013-01-05 19:46:00,25.6,16.5,30.26,North,-999,0.0,0.0,68,0.00,,,-99.99,WeatherLink 5.7,2013-01-06 00:46:00,
2013-01-05 19:50:00,24.7,16.0,30.26,North,-999,0.0,0.0,69,0.00,,,-99.99,WeatherLink 5.7,2013-01-06 00:50:00,
2013-01-05 20:00:00,24.1,16.1,30.25,North,-999,0.0,0.0,71,0.00,,,-99.99,WeatherLink 5.7,2013-01-06 01:00:00,
2013-01-05 20:01:00,24.7,16.0,30.26,North,-999,0.0,0.0,69,0.00,,,-99.99,WeatherLink 5.7,2013-01-06 01:01:00,
2013-01-05 20:05:00,23.8,16.1,30.25,North,-999,0.0,0.0,72,0.00,,,-99.99,WeatherLink 5.7,2013-01-06 01:05:00,
2013-01-05 20:15:00,23.5,15.8,30.24,North,-999,0.0,0.0,72,0.00,,,-99.99,WeatherLink 5.7,2013-01-06 01:15:00,
2013-01-05 20:16:00,23.6,15.9,30.25,North,-999,0.0,0.0,72,0.00,,,-99.99,WeatherLink 5.7,2013-01-06 01:16:00,
2013-01-05 20:20:00,23.3,15.9,30.24,North,-999,0.0,0.0,73,0.00,,,-99.99,WeatherLink 5.7,2013-01-06 01:20:00,
2013-01-05 20:30:00,22.9,15.2,30.25,North,-999,0.0,0.0,72,0.00,,,-99.99,WeatherLink 5.7,2013-01-06 01:30:00,
2013-01-05 20:31:00,23.2,15.8,30.24,North,-999,0.0,0.0,73,0.00,,,-99.99,WeatherLink 5.7,2013-01-06 01:31:00,
2013-01-05 20:35:00,22.7,15.3,30.25,North,-999,0.0,0.0,73,0.00,,,-99.99,WeatherLink 5.7,2013-01-06 01:35:00,
2013-01-05 20:45:00,22.4,15.1,30.25,North,-999,0.0,0.0,73,0.00,,,-99.99,WeatherLink 5.7,2013-01-06 01:45:00,
2013-01-05 20:46:00,22.5,15.5,30.25,North,-999,0.0,0.0,74,0.00,,,-99.99,WeatherLink 5.7,2013-01-06 01:46:00,
2013-01-05 20:50:00,22.1,15.4,30.25,North,-999,0.0,0.0,75,0.00,,,-99.99,WeatherLink 5.7,2013-01-06 01:50:00,
2013-01-05 21:00:00,21.9,15.5,30.25,North,-999,0.0,0.0,76,0.00,,,-99.99,WeatherLink 5.7,2013-01-06 02:00:00,
2013-01-05 21:01:00,22.1,15.4,30.25,North,-999,0.0,0.0,75,0.00,,,-99.99,WeatherLink 5.7,2013-01-06 02:01:00,
2013-01-05 21:05:00,21.9,15.2,30.25,North,-999,0.0,0.0,75,0.00,,,-99.99,WeatherLink 5.7,2013-01-06 02:05:00,
2013-01-05 21:15:00,21.4,15.0,30.26,North,-999,0.0,0.0,76,0.00,,,-99.99,WeatherLink 5.7,2013-01-06 02:15:00,
2013-01-05 21:16:00,21.6,14.9,30.25,North,-999,0.0,0.0,75,0.00,,,-99.99,WeatherLink 5.7,2013-01-06 02:16:00,
2013-01-05 21:20:00,21.3,14.6,30.26,North,-999,0.0,0.0,75,0.00,,,-99.99,WeatherLink 5.7,2013-01-06 02:20:00,
2013-01-05 21:30:00,21.0,14.9,30.25,North,-999,0.0,0.0,77,0.00,,,-99.99,WeatherLink 5.7,2013-01-06 02:30:00,
2013-01-05 21:31:00,21.1,14.4,30.26,North,-999,0.0,0.0,75,0.00,,,-99.99,WeatherLink 5.7,2013-01-06 02:31:00,
2013-01-05 21:35:00,20.5,14.1,30.25,North,-999,0.0,0.0,76,0.00,,,-99.99,WeatherLink 5.7,2013-01-06 02:35:00,
2013-01-05 21:45:00,20.2,13.8,30.25,North,-999,0.0,0.0,76,0.00,,,-99.99,WeatherLink 5.7,2013-01-06 02:45:00,
2013-01-05 21:46:00,20.2,14.1,30.25,North,-999,0.0,0.0,77,0.00,,,-99.99,WeatherLink 5.7,2013-01-06 02:46:00,
2013-01-05 21:50:00,20.2,14.4,30.25,North,-999,0.0,0.0,78,0.00,,,-99.99,WeatherLink 5.7,2013-01-06 02:50:00,
2013-01-05 22:00:00,20.0,13.9,30.24,North,-999,0.0,0.0,77,0.00,,,-99.99,WeatherLink 5.7,2013-01-06 03:00:00,
2013-01-05 22:01:00,20.2,14.4,30.25,North,-999,0.0,0.0,78,0.00,,,-99.99,WeatherLink 5.7,2013-01-06 03:01:00,
2013-01-05 22:05:00,20.0,13.9,30.24,North,-999,0.0,0.0,77,0.00,,,-99.99,WeatherLink 5.7,2013-01-06 03:05:00,
2013-01-05 22:15:00,20.2,14.4,30.24,North,-999,0.0,0.0,78,0.00,,,-99.99,WeatherLink 5.7,2013-01-06 03:15:00,
2013-01-05 22:16:00,19.9,13.9,30.24,North,-999,0.0,0.0,77,0.00,,,-99.99,WeatherLink 5.7,2013-01-06 03:16:00,
2013-01-05 22:20:00,20.0,13.6,30.24,North,-999,0.0,0.0,76,0.00,,,-99.99,WeatherLink 5.7,2013-01-06 03:20:00,
2013-01-05 22:30:00,19.4,13.4,30.22,North,-999,0.0,0.0,77,0.00,,,-99.99,WeatherLink 5.7,2013-01-06 03:30:00,
2013-01-05 22:31:00,19.7,13.7,30.24,North,-999,0.0,0.0,77,0.00,,,-99.99,WeatherLink 5.7,2013-01-06 03:31:00,
2013-01-05 22:35:00,19.4,13.9,30.22,North,-999,0.0,0.0,79,0.00,,,-99.99,WeatherLink 5.7,2013-01-06 03:35:00,
2013-01-05 22:45:00,19.5,13.8,30.22,North,-999,0.0,0.0,78,0.00,,,-99.99,WeatherLink 5.7,2013-01-06 03:45:00,
2013-01-05 22:46:00,19.4,13.9,30.22,North,-999,0.0,0.0,79,0.00,,,-99.99,WeatherLink 5.7,2013-01-06 03:46:00,
2013-01-05 22:50:00,19.4,13.9,30.22,North,-999,0.0,0.0,79,0.00,,,-99.99,WeatherLink 5.7,2013-01-06 03:50:00,
2013-01-05 23:00:00,19.4,13.9,30.23,North,-999,0.0,0.0,79,0.00,,,-99.99,WeatherLink 5.7,2013-01-06 04:00:00,
2013-01-05 23:01:00,19.4,13.9,30.22,North,-999,0.0,0.0,79,0.00,,,-99.99,WeatherLink 5.7,2013-01-06 04:01:00,
2013-01-05 23:05:00,19.4,13.9,30.23,North,-999,0.0,0.0,79,0.00,,,-99.99,WeatherLink 5.7,2013-01-06 04:05:00,
2013-01-05 23:15:00,19.2,13.8,30.22,North,-999,0.0,0.0,79,0.00,,,-99.99,WeatherLink 5.7,2013-01-06 04:15:00,
2013-01-05 23:16:00,19.4,13.9,30.23,North,-999,0.0,0.0,79,0.00,,,-99.99,WeatherLink 5.7,2013-01-06 04:16:00,
2013-01-05 23:20:00,19.4,13.9,30.22,North,-999,0.0,0.0,79,0.00,,,-99.99,WeatherLink 5.7,2013-01-06 04:20:00,
2013-01-05 23:30:00,19.5,14.3,30.22,North,-999,0.0,0.0,80,0.00,,,-99.99,WeatherLink 5.7,2013-01-06 04:30:00,
2013-01-05 23:31:00,19.4,13.9,30.22,North,-999,0.0,0.0,79,0.00,,,-99.99,WeatherLink 5.7,2013-01-06 04:31:00,
2013-01-05 23:35:00,19.7,14.5,30.22,North,-999,0.0,0.0,80,0.00,,,-99.99,WeatherLink 5.7,2013-01-06 04:35:00,
2013-01-05 23:45:00,19.9,14.7,30.19,North,-999,0.0,0.0,80,0.00,,,-99.99,WeatherLink 5.7,2013-01-06 04:45:00,
2013-01-05 23:46:00,19.9,14.7,30.22,North,-999,0.0,0.0,80,0.00,,,-99.99,WeatherLink 5.7,2013-01-06 04:46:00,
2013-01-05 23:50:00,20.0,14.8,30.19,North,-999,0.0,0.0,80,0.00,,,-99.99,WeatherLink 5.7,2013-01-06 04:50:00,
2013-01-05 23:55:00,20.2,15.0,30.19,North,-999,0.0,0.0,80,0.00,,,-99.99,WeatherLink 5.7,2013-01-06 04:55:00,